EWG5AL EDDL-LICC

Flight info

Callsign EWG5AL
Flight time 2h 30m
Altitude 35000
Route DODEN7Z/05R DODEN Y852 TUSUK DCT ULNOK L607 ABUKA DCT UTABA DCT BEMKI DCT ELMEM DCT GIRIS DCT DIKEM DCT VIC DCT LAT DCT ROSAS DCT BEKIV M871 LIBRO
Aircraft A320/M-SDE3FGHIRWY/LB1

Departure

Time 2026-05-05 19:10
Airport Düsseldorf Airport (EDDL)

Arrival

Time 2026-05-05 21:40
Airport Catania-Fontanarossa Airport (LICC)
Time Latitude Longitude Altitude Speed Heading
2026-05-05 18:13 51.28514 6.77108 137 ft 0 kts 324°
2026-05-05 18:51 51.28514 6.77109 164 ft 1 kts 324°
2026-05-05 18:52 51.28494 6.77131 137 ft 4 kts 319°
2026-05-05 18:52 51.28478 6.77156 137 ft 4 kts 300°
2026-05-05 18:52 51.28473 6.77193 137 ft 4 kts 249°
2026-05-05 18:52 51.28486 6.77229 137 ft 4 kts 232°
2026-05-05 18:53 51.28492 6.77240 137 ft 0 kts 232°
2026-05-05 18:57 51.28489 6.77236 137 ft 3 kts 233°
2026-05-05 18:57 51.28458 6.77174 137 ft 8 kts 231°
2026-05-05 18:57 51.28427 6.77109 137 ft 7 kts 233°
2026-05-05 18:57 51.28402 6.77054 137 ft 5 kts 233°
2026-05-05 18:58 51.28377 6.77004 137 ft 8 kts 231°
2026-05-05 18:58 51.28347 6.76931 137 ft 7 kts 251°
2026-05-05 18:58 51.28347 6.76861 137 ft 6 kts 276°
2026-05-05 18:58 51.28356 6.76769 137 ft 7 kts 279°
2026-05-05 18:59 51.28369 6.76728 137 ft 4 kts 313°
2026-05-05 18:59 51.28415 6.76643 137 ft 15 kts 274°
2026-05-05 18:59 51.28358 6.76502 137 ft 13 kts 232°
2026-05-05 18:59 51.28306 6.76394 136 ft 11 kts 232°
2026-05-05 19:00 51.28262 6.76300 137 ft 10 kts 233°
2026-05-05 19:00 51.28213 6.76196 137 ft 12 kts 233°
2026-05-05 19:00 51.28167 6.76100 137 ft 11 kts 232°
2026-05-05 19:00 51.28113 6.75987 137 ft 13 kts 233°
2026-05-05 19:01 51.28061 6.75878 137 ft 12 kts 232°
2026-05-05 19:01 51.28015 6.75782 137 ft 10 kts 232°
2026-05-05 19:01 51.27973 6.75696 137 ft 11 kts 232°
2026-05-05 19:01 51.27932 6.75610 136 ft 9 kts 233°
2026-05-05 19:02 51.27894 6.75531 136 ft 8 kts 233°
2026-05-05 19:02 51.27862 6.75463 136 ft 7 kts 233°
2026-05-05 19:02 51.27839 6.75406 136 ft 5 kts 248°
2026-05-05 19:02 51.27841 6.75368 136 ft 0 kts 290°
2026-05-05 19:03 51.27842 6.75362 136 ft 4 kts 291°
2026-05-05 19:04 51.27866 6.75330 136 ft 4 kts 332°
2026-05-05 19:04 51.27883 6.75316 135 ft 0 kts 333°
2026-05-05 19:08 51.27888 6.75312 135 ft 5 kts 333°
2026-05-05 19:08 51.27964 6.75272 129 ft 12 kts
2026-05-05 19:08 51.28035 6.75360 128 ft 14 kts 53°
2026-05-05 19:09 51.28087 6.75470 132 ft 0 kts 52°
2026-05-05 19:09 51.28135 6.75568 132 ft 37 kts 52°
2026-05-05 19:09 51.28441 6.76210 132 ft 105 kts 53°
2026-05-05 19:10 51.29003 6.77385 144 ft 157 kts 50°
2026-05-05 19:10 51.29695 6.78815 557 ft 168 kts 51°
2026-05-05 19:10 51.30410 6.80333 1211 ft 173 kts 54°
2026-05-05 19:10 51.31133 6.81880 1852 ft 177 kts 52°
2026-05-05 19:11 51.31919 6.83545 2138 ft 200 kts 53°
2026-05-05 19:11 51.32813 6.85432 2478 ft 224 kts 53°
2026-05-05 19:11 51.33796 6.87531 2917 ft 246 kts 54°
2026-05-05 19:11 51.34685 6.89921 3635 ft 254 kts 68°
2026-05-05 19:12 51.35115 6.92685 4427 ft 261 kts 85°
2026-05-05 19:12 51.35022 6.95614 5206 ft 267 kts 99°
2026-05-05 19:12 51.34716 6.98560 6019 ft 271 kts 99°
2026-05-05 19:12 51.34409 7.01563 6802 ft 275 kts 99°
2026-05-05 19:13 51.34099 7.04612 7586 ft 279 kts 99°
2026-05-05 19:13 51.33787 7.07698 8376 ft 282 kts 99°
2026-05-05 19:13 51.33474 7.10778 9145 ft 286 kts 99°
2026-05-05 19:13 51.33145 7.13952 9688 ft 291 kts 101°
2026-05-05 19:14 51.32530 7.17056 9817 ft 301 kts 116°
2026-05-05 19:14 51.31339 7.19987 9843 ft 330 kts 131°
2026-05-05 19:14 51.29672 7.22667 9910 ft 346 kts 135°
2026-05-05 19:14 51.27940 7.25382 10586 ft 349 kts 135°
2026-05-05 19:15 51.26199 7.28114 11246 ft 355 kts 135°
2026-05-05 19:15 51.24421 7.30909 11547 ft 369 kts 135°
2026-05-05 19:15 51.22556 7.33842 12120 ft 374 kts 135°
2026-05-05 19:15 51.20720 7.36732 12793 ft 376 kts 135°
2026-05-05 19:16 51.18850 7.39675 13426 ft 379 kts 136°
2026-05-05 19:16 51.16966 7.42640 13994 ft 382 kts 135°
2026-05-05 19:16 51.15064 7.45629 14572 ft 385 kts 136°
2026-05-05 19:16 51.13140 7.48613 15128 ft 388 kts 136°
2026-05-05 19:17 51.11180 7.51618 15663 ft 391 kts 137°
2026-05-05 19:17 51.09203 7.54627 16196 ft 395 kts 137°
2026-05-05 19:17 51.07198 7.57668 16715 ft 399 kts 137°
2026-05-05 19:17 51.05210 7.60677 17272 ft 401 kts 137°
2026-05-05 19:18 51.03180 7.63754 17826 ft 403 kts 137°
2026-05-05 19:18 51.01142 7.66839 18323 ft 406 kts 137°
2026-05-05 19:18 50.99092 7.69943 18779 ft 408 kts 137°
2026-05-05 19:18 50.97005 7.73002 19216 ft 410 kts 141°
2026-05-05 19:19 50.94675 7.75612 19671 ft 411 kts 148°
2026-05-05 19:19 50.92244 7.78008 20099 ft 413 kts 148°
2026-05-05 19:19 50.89788 7.80429 20520 ft 415 kts 148°
2026-05-05 19:19 50.87336 7.82842 20939 ft 417 kts 148°
2026-05-05 19:20 50.84865 7.85271 21338 ft 419 kts 148°
2026-05-05 19:20 50.82386 7.87706 21734 ft 421 kts 148°
2026-05-05 19:20 50.79891 7.90154 22116 ft 423 kts 148°
2026-05-05 19:20 50.77379 7.92613 22492 ft 425 kts 148°
2026-05-05 19:21 50.74860 7.95073 22858 ft 426 kts 148°
2026-05-05 19:21 50.72322 7.97551 23197 ft 428 kts 148°
2026-05-05 19:21 50.69785 8.00024 23497 ft 431 kts 148°
2026-05-05 19:21 50.67227 8.02513 23790 ft 432 kts 148°
2026-05-05 19:22 50.64661 8.05006 24082 ft 434 kts 148°
2026-05-05 19:22 50.62022 8.07317 24384 ft 435 kts 155°
2026-05-05 19:22 50.59202 8.09072 24685 ft 436 kts 159°
2026-05-05 19:22 50.56404 8.10764 24806 ft 436 kts 158°
2026-05-05 19:23 50.53579 8.12515 24825 ft 436 kts 158°
2026-05-05 19:23 50.50774 8.14275 24826 ft 436 kts 158°
2026-05-05 19:23 50.47946 8.16046 24857 ft 437 kts 158°
2026-05-05 19:23 50.45106 8.17806 25134 ft 439 kts 158°
2026-05-05 19:24 50.42258 8.19554 25417 ft 440 kts 158°
2026-05-05 19:24 50.39393 8.21300 25688 ft 441 kts 158°
2026-05-05 19:24 50.36528 8.23045 25938 ft 442 kts 158°
2026-05-05 19:24 50.33665 8.24788 26173 ft 444 kts 158°
2026-05-05 19:25 50.30778 8.26544 26399 ft 445 kts 158°
2026-05-05 19:25 50.27886 8.28305 26609 ft 446 kts 158°
2026-05-05 19:25 50.24987 8.30071 26858 ft 446 kts 158°
2026-05-05 19:25 50.22094 8.31831 27186 ft 445 kts 158°
2026-05-05 19:26 50.19211 8.33580 27510 ft 443 kts 158°
2026-05-05 19:26 50.16380 8.35296 27839 ft 442 kts 158°
2026-05-05 19:26 50.13522 8.37030 28177 ft 440 kts 158°
2026-05-05 19:26 50.10664 8.38764 28508 ft 439 kts 158°
2026-05-05 19:27 50.07809 8.40493 28812 ft 439 kts 158°
2026-05-05 19:27 50.04967 8.42206 29132 ft 438 kts 158°
2026-05-05 19:27 50.02123 8.43914 29432 ft 437 kts 158°
2026-05-05 19:27 49.99291 8.45608 29772 ft 436 kts 158°
2026-05-05 19:28 49.96465 8.47301 30064 ft 435 kts 158°
2026-05-05 19:28 49.93639 8.48997 30341 ft 434 kts 158°
2026-05-05 19:28 49.90817 8.50688 30641 ft 432 kts 158°
2026-05-05 19:28 49.88969 8.51795 30834 ft 432 kts 158°
2026-05-05 19:29 49.85247 8.54029 31187 ft 431 kts 158°
2026-05-05 19:29 49.82449 8.55699 31447 ft 431 kts 158°
2026-05-05 19:29 49.79659 8.57361 31724 ft 430 kts 158°
2026-05-05 19:29 49.76862 8.59025 32012 ft 429 kts 158°
2026-05-05 19:30 49.75016 8.60126 32197 ft 428 kts 158°
2026-05-05 19:30 49.72243 8.61777 32480 ft 427 kts 158°
2026-05-05 19:30 49.69472 8.63420 32757 ft 426 kts 158°
2026-05-05 19:30 49.66701 8.65056 33045 ft 425 kts 158°
2026-05-05 19:31 49.63945 8.66683 33309 ft 424 kts 159°
2026-05-05 19:31 49.61192 8.68305 33572 ft 424 kts 159°
2026-05-05 19:31 49.58436 8.69935 33837 ft 423 kts 159°
2026-05-05 19:31 49.55688 8.71560 34064 ft 423 kts 159°
2026-05-05 19:32 49.52937 8.73185 34269 ft 423 kts 159°
2026-05-05 19:32 49.50182 8.74808 34471 ft 423 kts 159°
2026-05-05 19:32 49.47430 8.76424 34662 ft 423 kts 159°
2026-05-05 19:32 49.44671 8.78039 34811 ft 424 kts 159°
2026-05-05 19:33 49.39145 8.81275 34841 ft 430 kts 160°
2026-05-05 19:33 49.33536 8.84557 34833 ft 431 kts 160°
2026-05-05 19:34 49.27925 8.87827 34833 ft 431 kts 160°
2026-05-05 19:35 49.19496 8.92709 34843 ft 432 kts 160°
2026-05-05 19:35 49.13879 8.95963 34838 ft 432 kts 160°
2026-05-05 19:36 49.08263 8.99220 34832 ft 432 kts 160°
2026-05-05 19:36 49.02639 9.02454 34832 ft 432 kts 160°
2026-05-05 19:37 48.97039 9.05669 34834 ft 432 kts 160°
2026-05-05 19:37 48.91405 9.08903 34829 ft 433 kts 161°
2026-05-05 19:38 48.85780 9.12134 34831 ft 433 kts 161°
2026-05-05 19:38 48.80134 9.15363 34829 ft 433 kts 161°
2026-05-05 19:39 48.74480 9.18584 34808 ft 434 kts 161°
2026-05-05 19:39 48.68823 9.21790 34809 ft 434 kts 162°
2026-05-05 19:40 48.63160 9.24998 34818 ft 434 kts 162°
2026-05-05 19:40 48.57497 9.28206 34823 ft 435 kts 162°
2026-05-05 19:41 48.51858 9.31390 34829 ft 435 kts 162°
2026-05-05 19:41 48.46173 9.34585 34841 ft 435 kts 162°
2026-05-05 19:42 48.40494 9.37774 34846 ft 435 kts 162°
2026-05-05 19:42 48.34814 9.40960 34852 ft 435 kts 162°
2026-05-05 19:43 48.29134 9.44135 34857 ft 435 kts 162°
2026-05-05 19:43 48.23784 9.48316 34836 ft 442 kts 147°
2026-05-05 19:44 48.19000 9.54165 34844 ft 443 kts 144°
2026-05-05 19:44 48.14236 9.60033 34848 ft 444 kts 144°
2026-05-05 19:45 48.09456 9.65904 34853 ft 444 kts 145°
2026-05-05 19:45 48.04667 9.71759 34858 ft 444 kts 145°
2026-05-05 19:46 47.99887 9.77586 34857 ft 444 kts 145°
2026-05-05 19:46 47.95094 9.83413 34837 ft 444 kts 146°
2026-05-05 19:47 47.90291 9.89245 34865 ft 445 kts 146°
2026-05-05 19:47 47.85517 9.95033 34869 ft 445 kts 146°
2026-05-05 19:48 47.80705 10.00852 34865 ft 445 kts 146°
2026-05-05 19:48 47.75888 10.06657 34866 ft 446 kts 146°
2026-05-05 19:49 47.71062 10.12463 34874 ft 446 kts 146°
2026-05-05 19:49 47.66234 10.18257 34863 ft 446 kts 147°
2026-05-05 19:50 47.61392 10.24053 34876 ft 446 kts 147°
2026-05-05 19:50 47.56599 10.29772 34882 ft 445 kts 148°
2026-05-05 19:51 47.51505 10.34862 34879 ft 441 kts 153°
2026-05-05 19:51 47.46332 10.39881 34871 ft 441 kts 153°
2026-05-05 19:52 47.41237 10.44829 34837 ft 441 kts 153°
2026-05-05 19:52 47.36115 10.49790 34853 ft 441 kts 153°
2026-05-05 19:53 47.30998 10.54719 34854 ft 441 kts 153°
2026-05-05 19:53 47.25641 10.58887 34849 ft 432 kts 163°
2026-05-05 19:54 47.20083 10.62295 34869 ft 433 kts 163°
2026-05-05 19:54 47.14503 10.65705 34871 ft 434 kts 163°
2026-05-05 19:55 47.08964 10.69097 34884 ft 434 kts 164°
2026-05-05 19:55 47.03383 10.72514 34866 ft 433 kts 164°
2026-05-05 19:56 46.97772 10.75925 34905 ft 437 kts 164°
2026-05-05 19:56 46.92144 10.79337 34923 ft 437 kts 163°
2026-05-05 19:57 46.86520 10.82749 34946 ft 438 kts 164°
2026-05-05 19:57 46.80921 10.86147 34949 ft 438 kts 164°
2026-05-05 19:58 46.75291 10.89602 34966 ft 439 kts 162°
2026-05-05 19:58 46.69768 10.93482 34973 ft 442 kts 160°
2026-05-05 19:59 46.64305 10.97525 34973 ft 441 kts 160°
2026-05-05 19:59 46.58813 11.01509 34956 ft 441 kts 161°
2026-05-05 20:00 46.53290 11.05424 34955 ft 441 kts 161°
2026-05-05 20:00 46.47746 11.09321 34974 ft 442 kts 161°
2026-05-05 20:01 46.42232 11.13200 34972 ft 443 kts 162°
2026-05-05 20:01 46.36661 11.17119 35037 ft 444 kts 162°
2026-05-05 20:02 46.31089 11.21031 35044 ft 445 kts 162°
2026-05-05 20:02 46.25507 11.24945 35019 ft 445 kts 162°
2026-05-05 20:03 46.19932 11.28850 34966 ft 446 kts 162°
2026-05-05 20:03 46.14368 11.32726 34982 ft 446 kts 162°
2026-05-05 20:04 46.08754 11.36620 34984 ft 447 kts 162°
2026-05-05 20:04 46.03142 11.40517 34996 ft 447 kts 162°
2026-05-05 20:05 45.97560 11.44393 34995 ft 447 kts 162°
2026-05-05 20:05 45.91958 11.48274 35001 ft 447 kts 162°
2026-05-05 20:06 45.86351 11.52134 35004 ft 447 kts 162°
2026-05-05 20:06 45.80730 11.55990 34995 ft 447 kts 162°
2026-05-05 20:07 45.75162 11.59827 35013 ft 446 kts 162°
2026-05-05 20:07 45.69556 11.63673 35005 ft 446 kts 162°
2026-05-05 20:08 45.63915 11.67366 35007 ft 439 kts 169°
2026-05-05 20:08 45.58115 11.69450 35006 ft 431 kts 175°
2026-05-05 20:09 45.52266 11.71345 34992 ft 431 kts 175°
2026-05-05 20:09 45.46399 11.73263 34968 ft 432 kts 175°
2026-05-05 20:10 45.40521 11.75169 34983 ft 433 kts 175°
2026-05-05 20:10 45.34628 11.77058 34978 ft 434 kts 175°
2026-05-05 20:11 45.29726 11.78629 34990 ft 435 kts 175°
2026-05-05 20:11 45.22826 11.80850 34989 ft 435 kts 175°
2026-05-05 20:12 45.17911 11.82432 34992 ft 436 kts 175°
2026-05-05 20:12 45.11023 11.84625 34988 ft 436 kts 175°
2026-05-05 20:13 45.06091 11.86190 34991 ft 436 kts 175°
2026-05-05 20:13 45.00156 11.88079 34992 ft 436 kts 175°
2026-05-05 20:14 44.94260 11.89957 34993 ft 436 kts 175°
2026-05-05 20:14 44.88326 11.91847 34975 ft 437 kts 175°
2026-05-05 20:15 44.82382 11.93724 34969 ft 438 kts 175°
2026-05-05 20:15 44.76421 11.95606 34974 ft 438 kts 175°
2026-05-05 20:16 44.70501 11.97470 34962 ft 438 kts 175°
2026-05-05 20:16 44.64540 11.99339 34973 ft 438 kts 175°
2026-05-05 20:17 44.58581 12.01211 34971 ft 439 kts 175°
2026-05-05 20:17 44.52615 12.03078 34975 ft 439 kts 175°
2026-05-05 20:18 44.46656 12.04935 34983 ft 438 kts 175°
2026-05-05 20:18 44.40718 12.06784 34958 ft 439 kts 175°
2026-05-05 20:19 44.34747 12.08649 34946 ft 440 kts 175°
2026-05-05 20:19 44.28793 12.10492 34969 ft 441 kts 175°
2026-05-05 20:20 44.22794 12.12347 34973 ft 442 kts 175°
2026-05-05 20:20 44.16759 12.14217 34979 ft 442 kts 175°
2026-05-05 20:21 44.10778 12.16066 34976 ft 443 kts 175°
2026-05-05 20:21 44.04753 12.17918 34981 ft 443 kts 175°
2026-05-05 20:22 43.98726 12.19758 34981 ft 443 kts 175°
2026-05-05 20:22 43.92693 12.21600 34979 ft 444 kts 175°
2026-05-05 20:23 43.86643 12.23460 34987 ft 445 kts 175°
2026-05-05 20:23 43.80619 12.25306 34987 ft 445 kts 175°
2026-05-05 20:24 43.74551 12.27147 34998 ft 445 kts 175°
2026-05-05 20:24 43.68494 12.28982 35006 ft 446 kts 175°
2026-05-05 20:25 43.62452 12.30812 35010 ft 446 kts 175°
2026-05-05 20:25 43.56396 12.32643 35013 ft 446 kts 175°
2026-05-05 20:26 43.50329 12.34489 35006 ft 445 kts 175°
2026-05-05 20:26 43.44273 12.36321 35021 ft 445 kts 175°
2026-05-05 20:27 43.38226 12.38122 35032 ft 444 kts 175°
2026-05-05 20:27 43.32212 12.39915 35033 ft 444 kts 175°
2026-05-05 20:28 43.26167 12.41727 35027 ft 444 kts 175°
2026-05-05 20:28 43.20113 12.43557 35037 ft 444 kts 175°
2026-05-05 20:29 43.14098 12.45347 35017 ft 444 kts 175°
2026-05-05 20:29 43.08062 12.47138 35030 ft 444 kts 175°
2026-05-05 20:30 43.02015 12.48937 35049 ft 444 kts 175°
2026-05-05 20:30 42.95979 12.50729 35058 ft 444 kts 175°
2026-05-05 20:31 42.89934 12.52520 35052 ft 443 kts 175°
2026-05-05 20:31 42.83940 12.54296 35049 ft 443 kts 175°
2026-05-05 20:32 42.77900 12.56073 35055 ft 443 kts 175°
2026-05-05 20:32 42.71891 12.57837 35040 ft 443 kts 175°
2026-05-05 20:33 42.65852 12.59602 35041 ft 443 kts 175°
2026-05-05 20:33 42.59815 12.61369 35045 ft 443 kts 175°
2026-05-05 20:34 42.53785 12.63143 35051 ft 443 kts 175°
2026-05-05 20:34 42.47787 12.64902 35050 ft 444 kts 175°
2026-05-05 20:35 42.41743 12.66653 35055 ft 444 kts 175°
2026-05-05 20:35 42.35688 12.68414 35056 ft 444 kts 175°
2026-05-05 20:36 42.29639 12.70174 35030 ft 445 kts 175°
2026-05-05 20:36 42.23560 12.71925 35034 ft 447 kts 175°
2026-05-05 20:37 42.17467 12.73684 35041 ft 448 kts 175°
2026-05-05 20:37 42.11396 12.75445 35044 ft 449 kts 175°
2026-05-05 20:38 42.05277 12.77206 35047 ft 450 kts 174°
2026-05-05 20:38 41.99141 12.78964 35050 ft 451 kts 174°
2026-05-05 20:39 41.92995 12.80720 35059 ft 452 kts 174°
2026-05-05 20:39 41.86834 12.82481 35044 ft 452 kts 174°
2026-05-05 20:40 41.80700 12.84234 35058 ft 453 kts 174°
2026-05-05 20:40 41.74527 12.86010 35062 ft 454 kts 174°
2026-05-05 20:41 41.68338 12.87778 35067 ft 454 kts 174°
2026-05-05 20:41 41.62148 12.89529 35068 ft 454 kts 174°
2026-05-05 20:42 41.55962 12.91278 35072 ft 454 kts 174°
2026-05-05 20:42 41.49820 12.92929 35086 ft 452 kts 175°
2026-05-05 20:43 41.43610 12.94392 35077 ft 451 kts 176°
2026-05-05 20:43 41.37419 12.95814 35080 ft 451 kts 175°
2026-05-05 20:44 41.31226 12.97262 35084 ft 451 kts 175°
2026-05-05 20:44 41.25045 12.98741 35084 ft 451 kts 175°
2026-05-05 20:45 41.15812 13.00959 35074 ft 450 kts 175°
2026-05-05 20:45 41.09631 13.02433 35078 ft 450 kts 175°
2026-05-05 20:46 41.03614 13.03857 35082 ft 450 kts 175°
2026-05-05 20:46 40.97437 13.05310 35082 ft 450 kts 175°
2026-05-05 20:47 40.91304 13.06759 35087 ft 450 kts 175°
2026-05-05 20:47 40.85119 13.08217 35089 ft 450 kts 175°
2026-05-05 20:48 40.78945 13.09669 35068 ft 450 kts 175°
2026-05-05 20:48 40.72766 13.11115 35077 ft 450 kts 174°
2026-05-05 20:49 40.66632 13.12555 35067 ft 451 kts 174°
2026-05-05 20:49 40.60446 13.14001 35066 ft 451 kts 175°
2026-05-05 20:50 40.55297 13.15202 35057 ft 452 kts 174°
2026-05-05 20:50 40.48044 13.16894 35062 ft 452 kts 174°
2026-05-05 20:51 40.41870 13.18331 35064 ft 453 kts 174°
2026-05-05 20:51 40.35660 13.19778 35053 ft 452 kts 174°
2026-05-05 20:52 40.29457 13.21217 35077 ft 451 kts 174°
2026-05-05 20:52 40.23270 13.22635 35088 ft 451 kts 174°
2026-05-05 20:53 40.17122 13.24056 35090 ft 450 kts 174°
2026-05-05 20:53 40.10947 13.25489 35075 ft 450 kts 174°
2026-05-05 20:54 40.04764 13.26920 35077 ft 450 kts 174°
2026-05-05 20:54 39.98600 13.28329 35081 ft 449 kts 174°
2026-05-05 20:55 39.92475 13.29721 35077 ft 449 kts 174°
2026-05-05 20:55 39.86314 13.31131 35080 ft 449 kts 174°
2026-05-05 20:56 39.81201 13.32301 35082 ft 449 kts 174°
2026-05-05 20:56 39.75033 13.33713 35081 ft 449 kts 174°
2026-05-05 20:57 39.68874 13.35113 35058 ft 448 kts 174°
2026-05-05 20:57 39.62773 13.36491 35066 ft 448 kts 174°
2026-05-05 20:58 39.56628 13.37876 35067 ft 448 kts 174°
2026-05-05 20:58 39.50490 13.39276 35069 ft 448 kts 174°
2026-05-05 20:59 39.44359 13.40672 35062 ft 448 kts 174°
2026-05-05 20:59 39.38198 13.42058 35063 ft 448 kts 174°
2026-05-05 21:00 39.32091 13.43429 35065 ft 448 kts 174°
2026-05-05 21:00 39.25938 13.44807 35074 ft 448 kts 174°
2026-05-05 21:01 39.19798 13.46188 35059 ft 448 kts 174°
2026-05-05 21:01 39.13634 13.47572 35059 ft 449 kts 174°
2026-05-05 21:02 39.07479 13.48947 35063 ft 449 kts 174°
2026-05-05 21:02 39.01313 13.50320 35038 ft 450 kts 174°
2026-05-05 21:03 38.95177 13.51688 35034 ft 451 kts 174°
2026-05-05 21:03 38.88991 13.53066 35039 ft 451 kts 174°
2026-05-05 21:04 38.82799 13.54378 35043 ft 451 kts 176°
2026-05-05 21:04 38.76565 13.55251 35038 ft 450 kts 179°
2026-05-05 21:05 38.70316 13.55938 35047 ft 450 kts 179°
2026-05-05 21:05 38.64107 13.56704 35050 ft 451 kts 178°
2026-05-05 21:06 38.57836 13.57559 35058 ft 451 kts 178°
2026-05-05 21:06 38.51594 13.58408 35055 ft 451 kts 178°
2026-05-05 21:07 38.45346 13.59235 35061 ft 451 kts 178°
2026-05-05 21:07 38.39149 13.60045 35065 ft 451 kts 178°
2026-05-05 21:08 38.32894 13.60876 35066 ft 451 kts 178°
2026-05-05 21:08 38.26639 13.61696 35056 ft 452 kts 178°
2026-05-05 21:09 38.20382 13.62515 35058 ft 452 kts 178°
2026-05-05 21:09 38.14151 13.63342 35044 ft 452 kts 178°
2026-05-05 21:10 38.11012 13.63756 34807 ft 452 kts 178°
2026-05-05 21:10 38.07929 13.64159 34558 ft 452 kts 177°
2026-05-05 21:10 38.04793 13.64571 33739 ft 454 kts 177°
2026-05-05 21:10 38.01646 13.64982 32776 ft 455 kts 177°
2026-05-05 21:11 37.98500 13.65392 31788 ft 457 kts 176°
2026-05-05 21:11 37.95348 13.66131 30770 ft 464 kts 167°
2026-05-05 21:11 37.92304 13.67601 29642 ft 472 kts 156°
2026-05-05 21:11 37.89496 13.69825 28434 ft 479 kts 144°
2026-05-05 21:12 37.87097 13.72678 27541 ft 480 kts 133°
2026-05-05 21:12 37.85091 13.76093 26317 ft 486 kts 122°
2026-05-05 21:12 37.83640 13.79983 25605 ft 493 kts 112°
2026-05-05 21:12 37.82392 13.84031 25305 ft 497 kts 112°
2026-05-05 21:13 37.81109 13.88110 24945 ft 500 kts 112°
2026-05-05 21:13 37.79803 13.92212 24398 ft 502 kts 113°
2026-05-05 21:13 37.78494 13.96292 23884 ft 501 kts 113°
2026-05-05 21:13 37.77187 14.00371 23232 ft 498 kts 113°
2026-05-05 21:14 37.75889 14.04407 22487 ft 493 kts 113°
2026-05-05 21:14 37.74598 14.08394 21766 ft 488 kts 114°
2026-05-05 21:14 37.73316 14.12327 21062 ft 483 kts 114°
2026-05-05 21:14 37.72055 14.16176 20381 ft 478 kts 114°
2026-05-05 21:15 37.70785 14.20054 19786 ft 474 kts 114°
2026-05-05 21:15 37.69532 14.23895 19204 ft 471 kts 114°
2026-05-05 21:15 37.68290 14.27709 18654 ft 467 kts 114°
2026-05-05 21:15 37.67054 14.31496 18056 ft 464 kts 114°
2026-05-05 21:16 37.65827 14.35236 17431 ft 459 kts 114°
2026-05-05 21:16 37.64609 14.38941 16735 ft 452 kts 114°
2026-05-05 21:16 37.63426 14.42543 16018 ft 448 kts 114°
2026-05-05 21:16 37.62527 14.46294 15304 ft 446 kts 101°
2026-05-05 21:17 37.62383 14.50181 14611 ft 443 kts 86°
2026-05-05 21:17 37.62644 14.54010 13924 ft 429 kts 85°
2026-05-05 21:17 37.62901 14.57673 13174 ft 409 kts 85°
2026-05-05 21:17 37.63146 14.61171 12463 ft 392 kts 85°
2026-05-05 21:18 37.63376 14.64495 12178 ft 365 kts 85°
2026-05-05 21:18 37.63584 14.67565 12081 ft 337 kts 85°
2026-05-05 21:18 37.63603 14.70383 12089 ft 308 kts 101°
2026-05-05 21:18 37.62810 14.72928 12097 ft 317 kts 127°
2026-05-05 21:19 37.61346 14.74752 12088 ft 289 kts 153°
2026-05-05 21:19 37.59500 14.75533 12094 ft 276 kts 180°
2026-05-05 21:19 37.57642 14.75473 12093 ft 260 kts 188°
2026-05-05 21:19 37.55849 14.75270 11792 ft 260 kts 189°
2026-05-05 21:20 37.54060 14.75047 11378 ft 255 kts 189°
2026-05-05 21:20 37.52298 14.74820 10894 ft 253 kts 189°
2026-05-05 21:20 37.50554 14.74590 10414 ft 251 kts 189°
2026-05-05 21:20 37.48827 14.74358 9938 ft 248 kts 189°
2026-05-05 21:21 37.47106 14.74123 9414 ft 246 kts 189°
2026-05-05 21:21 37.45449 14.73886 8915 ft 244 kts 189°
2026-05-05 21:21 37.43766 14.73635 8410 ft 243 kts 189°
2026-05-05 21:21 37.42095 14.73374 7916 ft 241 kts 189°
2026-05-05 21:22 37.40450 14.73107 7612 ft 233 kts 189°
2026-05-05 21:22 37.38849 14.72842 7423 ft 233 kts 189°
2026-05-05 21:22 37.37292 14.72356 7175 ft 229 kts 210°
2026-05-05 21:22 37.36170 14.70992 6937 ft 227 kts 240°
2026-05-05 21:23 37.35513 14.69174 6716 ft 228 kts 248°
2026-05-05 21:23 37.35108 14.67249 6476 ft 228 kts 261°
2026-05-05 21:23 37.34942 14.65263 6227 ft 229 kts 264°
2026-05-05 21:23 37.34810 14.63262 5975 ft 229 kts 264°
2026-05-05 21:24 37.34686 14.61261 5726 ft 229 kts 264°
2026-05-05 21:24 37.34567 14.59286 5481 ft 230 kts 264°
2026-05-05 21:24 37.34449 14.57282 5235 ft 230 kts 264°
2026-05-05 21:24 37.34333 14.55277 5043 ft 229 kts 264°
2026-05-05 21:25 37.34219 14.53274 4990 ft 230 kts 264°
2026-05-05 21:25 37.34106 14.51260 5000 ft 231 kts 264°
2026-05-05 21:25 37.33990 14.49241 5000 ft 231 kts 264°
2026-05-05 21:25 37.33874 14.47227 5004 ft 231 kts 264°
2026-05-05 21:26 37.33757 14.45213 5001 ft 231 kts 264°
2026-05-05 21:26 37.33643 14.43229 5001 ft 231 kts 264°
2026-05-05 21:26 37.33527 14.41211 5001 ft 231 kts 264°
2026-05-05 21:26 37.33416 14.39200 5002 ft 231 kts 267°
2026-05-05 21:27 37.33689 14.37254 4994 ft 222 kts 293°
2026-05-05 21:27 37.34583 14.35737 4999 ft 216 kts 320°
2026-05-05 21:27 37.35903 14.34881 5003 ft 214 kts 348°
2026-05-05 21:27 37.37366 14.34851 5005 ft 211 kts 14°
2026-05-05 21:28 37.38685 14.35616 5003 ft 209 kts 41°
2026-05-05 21:28 37.39594 14.37005 5002 ft 205 kts 66°
2026-05-05 21:28 37.40017 14.38706 5003 ft 201 kts 78°
2026-05-05 21:28 37.40350 14.40393 5027 ft 198 kts 78°
2026-05-05 21:29 37.40684 14.42061 4999 ft 195 kts 78°
2026-05-05 21:29 37.41014 14.43705 5003 ft 195 kts 78°
2026-05-05 21:29 37.41334 14.45346 5002 ft 195 kts 82°
2026-05-05 21:29 37.41494 14.47032 5005 ft 194 kts 86°
2026-05-05 21:30 37.41640 14.48720 5004 ft 194 kts 86°
2026-05-05 21:30 37.41790 14.50409 5000 ft 194 kts 86°
2026-05-05 21:30 37.41942 14.52096 4999 ft 194 kts 86°
2026-05-05 21:30 37.42095 14.53782 4998 ft 194 kts 86°
2026-05-05 21:31 37.42245 14.55451 4994 ft 194 kts 86°
2026-05-05 21:31 37.42395 14.57137 4994 ft 194 kts 86°
2026-05-05 21:31 37.42544 14.58825 4995 ft 194 kts 85°
2026-05-05 21:31 37.42694 14.60517 4992 ft 194 kts 86°
2026-05-05 21:32 37.42843 14.62206 4989 ft 194 kts 86°
2026-05-05 21:32 37.42991 14.63889 4994 ft 194 kts 86°
2026-05-05 21:32 37.43140 14.65579 4989 ft 194 kts 86°
2026-05-05 21:32 37.43288 14.67264 4988 ft 194 kts 86°
2026-05-05 21:33 37.43432 14.68892 4980 ft 178 kts 86°
2026-05-05 21:33 37.43562 14.70371 4881 ft 168 kts 86°
2026-05-05 21:33 37.43689 14.71829 4701 ft 163 kts 86°
2026-05-05 21:33 37.43808 14.73199 4516 ft 157 kts 86°
2026-05-05 21:34 37.43925 14.74538 4326 ft 150 kts 86°
2026-05-05 21:34 37.44037 14.75821 4150 ft 145 kts 86°
2026-05-05 21:34 37.44146 14.77078 3951 ft 144 kts 86°
2026-05-05 21:34 37.44254 14.78323 3755 ft 143 kts 86°
2026-05-05 21:35 37.44361 14.79563 3549 ft 142 kts 86°
2026-05-05 21:35 37.44468 14.80796 3364 ft 141 kts 86°
2026-05-05 21:35 37.44574 14.82018 3162 ft 140 kts 85°
2026-05-05 21:35 37.44680 14.83241 3025 ft 140 kts 85°
2026-05-05 21:36 37.44784 14.84446 2979 ft 140 kts 85°
2026-05-05 21:36 37.44889 14.85667 2967 ft 141 kts 85°
2026-05-05 21:36 37.44995 14.86892 2863 ft 140 kts 85°
2026-05-05 21:36 37.45100 14.88111 2707 ft 140 kts 85°
2026-05-05 21:37 37.45205 14.89331 2523 ft 139 kts 85°
2026-05-05 21:37 37.45309 14.90543 2349 ft 138 kts 84°
2026-05-05 21:37 37.45412 14.91749 2173 ft 138 kts 84°
2026-05-05 21:37 37.45514 14.92943 1995 ft 139 kts 84°
2026-05-05 21:38 37.45618 14.94154 1809 ft 139 kts 84°
2026-05-05 21:38 37.45721 14.95363 1617 ft 138 kts 84°
2026-05-05 21:38 37.45824 14.96567 1430 ft 138 kts 84°
2026-05-05 21:38 37.45926 14.97767 1248 ft 138 kts 83°
2026-05-05 21:39 37.46030 14.98965 1068 ft 137 kts 84°
2026-05-05 21:39 37.46119 15.00151 934 ft 136 kts 84°
2026-05-05 21:39 37.46222 15.01328 757 ft 135 kts 81°
2026-05-05 21:39 37.46330 15.02497 549 ft 134 kts 83°
2026-05-05 21:40 37.46419 15.03655 361 ft 132 kts 82°
2026-05-05 21:40 37.46522 15.04806 160 ft 132 kts 83°
2026-05-05 21:40 37.46613 15.05933 24 ft 124 kts 83°
2026-05-05 21:40 37.46686 15.06735 22 ft 48 kts 84°
2026-05-05 21:41 37.46710 15.07018 22 ft 30 kts 84°
2026-05-05 21:41 37.46725 15.07192 22 ft 30 kts 83°
2026-05-05 21:41 37.46755 15.07508 24 ft 21 kts 79°
2026-05-05 21:41 37.46781 15.07615 25 ft 19 kts 67°
2026-05-05 21:42 37.46820 15.07710 23 ft 10 kts 56°
2026-05-05 21:42 37.46862 15.07783 22 ft 9 kts 54°
2026-05-05 21:42 37.46911 15.07807 22 ft 8 kts 347°
2026-05-05 21:42 37.46937 15.07758 22 ft 7 kts 274°
2026-05-05 21:43 37.46934 15.07704 22 ft 6 kts 264°
2026-05-05 21:43 37.46930 15.07656 22 ft 5 kts 263°
2026-05-05 21:43 37.46926 15.07614 22 ft 5 kts 264°
2026-05-05 21:43 37.46923 15.07577 22 ft 4 kts 264°
2026-05-05 21:44 37.46919 15.07530 22 ft 11 kts 264°
2026-05-05 21:44 37.46910 15.07418 22 ft 12 kts 264°
2026-05-05 21:44 37.46901 15.07315 22 ft 11 kts 264°
2026-05-05 21:44 37.46893 15.07222 24 ft 10 kts 263°
2026-05-05 21:45 37.46886 15.07137 22 ft 9 kts 264°
2026-05-05 21:45 37.46880 15.07061 22 ft 8 kts 263°
2026-05-05 21:45 37.46874 15.06990 22 ft 8 kts 263°
2026-05-05 21:45 37.46868 15.06921 22 ft 10 kts 264°
2026-05-05 21:46 37.46862 15.06842 22 ft 9 kts 264°
2026-05-05 21:46 37.46856 15.06781 22 ft 5 kts 263°
2026-05-05 21:46 37.46854 15.06757 22 ft 0 kts 264°
2026-05-05 21:47 37.46852 15.06724 22 ft 13 kts 264°
2026-05-05 21:47 37.46841 15.06609 22 ft 13 kts 264°
2026-05-05 21:47 37.46833 15.06505 22 ft 11 kts 264°
2026-05-05 21:47 37.46825 15.06418 22 ft 8 kts 263°
2026-05-05 21:48 37.46829 15.06362 22 ft 5 kts 313°
2026-05-05 21:48 37.46860 15.06354 22 ft 4 kts 354°
2026-05-05 21:48 37.46887 15.06353 22 ft 4 kts 360°
2026-05-05 21:48 37.46912 15.06342 24 ft 5 kts 324°
2026-05-05 21:49 37.46935 15.06316 22 ft 4 kts 317°
2026-05-05 21:49 37.46949 15.06300 22 ft 2 kts 317°
2026-05-05 21:49 37.46950 15.06298 22 ft 0 kts 317°